Regional Weather Roundup
Issued by NWS

Home | Current Version | Previous Version | Graphics & Text | Print | Product List | Glossary On
Versions: 1 2 3 4 5 6 7 8 9 10 11 12 13 14 15 16 17 18 19 20 21 22 23 24 25 26 27 28
000
ASUS45 KTFX 021810
RWRMT
MONTANA REGIONAL WEATHER ROUNDUP
NATIONAL WEATHER SERVICE GREAT FALLS MT
1200 PM MDT MON MAY 02 2016

NOTE: "FAIR" INDICATES FEW OR NO CLOUDS BELOW 12000 FEET WITH NO
SIGNIFICANT WEATHER AND/OR OBSTRUCTIONS TO VISIBILITY.

MTZ001>007-043-021900-
WEST OF THE DIVIDE

CITY           SKY/WX    TMP DP  RH WIND       PRES   REMARKS
KALISPELL      SUNNY     64  39  39 CALM      30.18F
MISSOULA       SUNNY     59  39  47 CALM      30.20F
BUTTE          SUNNY     59  23  25 N7        30.24F
MULLAN PASS    SUNNY     57  28  33 CALM      30.24S
$$

MTZ008-052>055-021900-
SOUTHWEST MONTANA

CITY           SKY/WX    TMP DP  RH WIND       PRES   REMARKS
BOZEMAN        SUNNY     60  32  34 NW3       30.23F
DILLON         SUNNY     56  29  35 CALM      30.23S
ENNIS          SUNNY     59  32  36 VRB6      30.28S
$$

MTZ009-010-012-014-046-048-049-054-021900-
EAST SLOPES AND CENTRAL MONTANA

CITY           SKY/WX    TMP DP  RH WIND       PRES   REMARKS
CUT BANK       SUNNY     63  34  33 VRB3      30.18S
MALMSTROM AFB  SUNNY     61  37  41 W8        30.18F
HELENA         SUNNY     62  36  37 NE5       30.20F
$$

MTZ011-013-016-021-045-047-050-051-021900-
NORTH CENTRAL MONTANA

CITY           SKY/WX    TMP DP  RH WIND       PRES   REMARKS
HAVRE          SUNNY     65  39  38 SW10      30.15F
LEWISTOWN      SUNNY     61  30  31 W5        30.19S
N BAR RANCH      N/A     61  30  31 NW9       30.20F
$$

MTZ017>020-022>027-061-062-021900-
NORTHEAST MONTANA

CITY           SKY/WX    TMP DP  RH WIND       PRES   REMARKS
GLASGOW        SUNNY     69  40  34 NW14      30.09F
JORDAN           N/A     67  37  33 NW15G21   30.12S
SIDNEY         MOSUNNY   72  36  26 N21G26    30.02F
WOLF POINT     SUNNY     74  36  25 N15G23    30.05F
$$

MTZ028>42-056>058-021900-
SOUTHCENTRAL AND SOUTHEAST MONTANA

CITY           SKY/WX    TMP DP  RH WIND       PRES   REMARKS
BAKER          PTSUNNY   65  35  33 NW21G32   30.08F
BILLINGS       MOSUNNY   61  34  36 CALM      30.18F
LIVINGSTON     SUNNY     62  32  32 VRB6      30.20F
MILES CITY     SUNNY     66  35  31 NW9       30.11F
$$

REGIONAL REPORTS...DAKOTAS

CITY           SKY/WX    TMP DP  RH WIND       PRES   REMARKS
WILLISTON      SUNNY     71  32  23 N13       30.03R
MINOT          SUNNY     70  35  27 N10G21    29.99S
DICKINSON      CLOUDY    65  33  30 NW21G30   29.98F
BEACH            N/A     66  32  28 N21G30    30.07F
CROSBY           N/A     68  27  21 N16G22    30.04S
TIOGA            N/A     66  28  24 N17G26    30.07R
WATFORD CITY     N/A     68  32  26 N20G26    30.02S
BISMARCK       PTSUNNY   57  47  69 SE13      30.01S
GRAND FORKS    MOSUNNY   68  30  24 SE3       30.00F
FARGO          SUNNY     68  26  20 CALM      30.01F
BUFFALO SD       N/A     63  32  31 NW22G31   30.00F
RAPID CITY     CLOUDY    62  32  32 N12G21    30.09F
$$

REGIONAL REPORTS...WYOMING/IDAHO/WASHINGTON

CITY           SKY/WX    TMP DP  RH WIND       PRES   REMARKS
GILLETTE       SUNNY     58  32  37 N17G24    30.15F
SHERIDAN       SUNNY     61  31  32 NW13      30.17F
BUFFALO WY       N/A    N/A N/A N/A MISG      30.19S
CODY           SUNNY     55  25  30 SE5       30.21S
YELLOWSTONE LA   N/A     41  16  36 E5        30.31S
IDAHO FALLS    SUNNY     58  22  24 SW7       30.25F
SALMON           N/A    N/A N/A N/A MISG        N/A
BOISE          SUNNY     68  32  26 S8        30.18S
SPOKANE        MOSUNNY   69  41  36 NE6       30.13F
$$

REGIONAL REPORTS...ALBERTA

CITY           SKY/WX    TMP DP  RH WIND       PRES   REMARKS
EDMONTON       MOSUNNY   75  39  27 CALM      30.06F
CALGARY        PTSUNNY   70  30  23 SE8       30.12F
LETHBRIDGE     MOSUNNY   70  32  24 W7        30.13F
MEDICINE HAT   MOSUNNY   70  36  28 W5        30.11F
MILK RIVER       N/A     66  34  30 SW3         N/A
ONEFOUR          N/A     66  36  32 NW7         N/A
$$

REGIONAL REPORTS...SASKATCHEWAN

CITY           SKY/WX    TMP DP  RH WIND       PRES   REMARKS
SWIFT CURRENT  SUNNY     70  34  26 N8G18     30.07F
REGINA         MOSUNNY   70  25  18 NW5       30.03F
SASKATOON      PTSUNNY   72  32  23 VRB2      30.06S
VAL MARIE        N/A     72  34  25 NW14G20     N/A
ROCKGLEN         N/A     70  34  26 NW13G18     N/A
ASSINIBOIA       N/A     79  36  21 SE2         N/A
$$




USA.gov is the U.S. government's official web portal to all federal, state and local government web resources and services.